GAF1MK LDSP-LOWS

Flight info

Callsign GAF1MK
Flight time N/A
Altitude 15000
Route VFR
Aircraft F18H/M-SDE3FGHIRWY/LB1

Departure

Time N/A
Airport Split Saint Jerome Airport (LDSP)

Arrival

Time 2026-04-27 12:50
Airport Salzburg Airport (LOWS)
Time Latitude Longitude Altitude Speed Heading
2026-04-27 12:29 45.44492 15.33984 15437 ft 600 kts 334°
2026-04-27 12:30 45.48278 15.31509 15425 ft 600 kts 334°
2026-04-27 12:30 45.52023 15.29060 15420 ft 600 kts 334°
2026-04-27 12:30 45.55814 15.26580 15444 ft 599 kts 334°
2026-04-27 12:30 45.59609 15.24099 15415 ft 600 kts 334°
2026-04-27 12:31 45.63406 15.21617 15417 ft 600 kts 334°
2026-04-27 12:31 45.67200 15.19138 15440 ft 600 kts 334°
2026-04-27 12:31 45.70998 15.16653 15432 ft 600 kts 334°
2026-04-27 12:31 45.74794 15.14168 15426 ft 600 kts 334°
2026-04-27 12:32 45.78584 15.11686 15439 ft 599 kts 334°
2026-04-27 12:32 45.82383 15.09195 15429 ft 600 kts 334°
2026-04-27 12:32 45.86178 15.06688 15412 ft 601 kts 334°
2026-04-27 12:32 45.89970 15.04178 15435 ft 600 kts 334°
2026-04-27 12:33 45.93764 15.01671 15429 ft 600 kts 334°
2026-04-27 12:33 45.97555 14.99165 15422 ft 600 kts 334°
2026-04-27 12:33 46.01611 14.96483 15494 ft 688 kts 334°
2026-04-27 12:33 46.06260 14.93396 15437 ft 779 kts 334°
2026-04-27 12:34 46.11366 14.89999 15399 ft 831 kts 334°
2026-04-27 12:34 46.16699 14.86445 15325 ft 854 kts 334°
2026-04-27 12:34 46.22115 14.82829 15324 ft 860 kts 334°
2026-04-27 12:34 46.27560 14.79199 15307 ft 862 kts 334°
2026-04-27 12:35 46.33004 14.75568 15347 ft 859 kts 334°
2026-04-27 12:35 46.37876 14.72329 15283 ft 698 kts 334°
2026-04-27 12:35 46.42022 14.69591 15192 ft 617 kts 334°
2026-04-27 12:35 46.45817 14.67081 13801 ft 593 kts 333°
2026-04-27 12:36 46.49403 14.64170 11956 ft 589 kts 328°
2026-04-27 12:36 46.52850 14.60961 10202 ft 589 kts 326°
2026-04-27 12:36 46.56301 14.57615 9832 ft 636 kts 325°
2026-04-27 12:36 46.60338 14.53594 9757 ft 767 kts 325°
2026-04-27 12:37 46.64918 14.48963 9514 ft 824 kts 324°
2026-04-27 12:37 46.69597 14.44202 11166 ft 812 kts 324°
2026-04-27 12:37 46.74320 14.39553 13224 ft 833 kts 326°
2026-04-27 12:37 46.79308 14.34975 12833 ft 855 kts 329°
2026-04-27 12:38 46.84449 14.30779 12741 ft 834 kts 332°
2026-04-27 12:38 46.89599 14.26982 12695 ft 823 kts 334°
2026-04-27 12:38 46.94281 14.23826 12622 ft 691 kts 336°
2026-04-27 12:38 46.98463 14.21264 12540 ft 617 kts 338°
2026-04-27 12:39 47.02267 14.18880 12517 ft 580 kts 331°
2026-04-27 12:39 47.05611 14.15801 13533 ft 584 kts 323°
2026-04-27 12:39 47.08912 14.12132 14102 ft 586 kts 323°
2026-04-27 12:39 47.12333 14.09067 13945 ft 568 kts 333°
2026-04-27 12:40 47.15969 14.06999 13907 ft 552 kts 338°
2026-04-27 12:40 47.19410 14.04701 13924 ft 536 kts 330°
2026-04-27 12:40 47.22522 14.01814 13928 ft 523 kts 322°
2026-04-27 12:40 47.25380 13.98586 13949 ft 513 kts 323°
2026-04-27 12:41 47.28383 13.95825 13948 ft 506 kts 330°
2026-04-27 12:41 47.31556 13.93653 13954 ft 499 kts 337°
2026-04-27 12:41 47.34846 13.92102 13952 ft 494 kts 345°
2026-04-27 12:41 47.38202 13.91176 13964 ft 488 kts 351°
2026-04-27 12:42 47.41565 13.90847 13943 ft 480 kts 358°
2026-04-27 12:42 47.44867 13.90692 13918 ft 468 kts 348°
2026-04-27 12:42 47.47740 13.88786 13978 ft 448 kts 327°
2026-04-27 12:42 47.50361 13.86310 13850 ft 447 kts 326°
2026-04-27 12:43 47.52987 13.83840 13634 ft 446 kts 326°
2026-04-27 12:43 47.55612 13.81392 13419 ft 445 kts 327°
2026-04-27 12:43 47.58250 13.78968 13135 ft 450 kts 327°
2026-04-27 12:43 47.61022 13.76334 12821 ft 499 kts 325°
2026-04-27 12:44 47.63806 13.73520 12459 ft 456 kts 324°
2026-04-27 12:44 47.66031 13.70609 12088 ft 402 kts 306°
2026-04-27 12:44 47.67114 13.66900 11574 ft 405 kts 282°
2026-04-27 12:44 47.67603 13.62703 10819 ft 405 kts 278°
2026-04-27 12:45 47.68148 13.58579 10199 ft 421 kts 285°
2026-04-27 12:45 47.69149 13.54343 9468 ft 452 kts 290°
2026-04-27 12:45 47.70459 13.49876 4740 ft 518 kts 298°
2026-04-27 12:45 47.72601 13.45115 1909 ft 560 kts 328°
2026-04-27 12:46 47.74751 13.40923 2092 ft 511 kts 302°
2026-04-27 12:46 47.76814 13.36687 2250 ft 512 kts 296°
2026-04-27 12:46 47.77367 13.32202 3791 ft 400 kts 262°
2026-04-27 12:46 47.76867 13.29013 3551 ft 249 kts 259°
2026-04-27 12:47 47.76685 13.26706 3676 ft 204 kts 270°
2026-04-27 12:47 47.76708 13.24416 3773 ft 285 kts 274°
2026-04-27 12:47 47.76567 13.21117 3985 ft 339 kts 256°
2026-04-27 12:47 47.75525 13.18033 3756 ft 330 kts 239°
2026-04-27 12:48 47.74312 13.15158 3391 ft 319 kts 238°
2026-04-27 12:48 47.73193 13.12387 2702 ft 301 kts 256°
2026-04-27 12:48 47.73412 13.09648 2533 ft 245 kts 289°
2026-04-27 12:48 47.73847 13.07383 2617 ft 216 kts 285°
2026-04-27 12:49 47.74148 13.05308 2402 ft 193 kts 285°
2026-04-27 12:49 47.74700 13.03739 2268 ft 156 kts 321°
2026-04-27 12:49 47.75550 13.02883 2064 ft 155 kts 334°
2026-04-27 12:49 47.76560 13.02154 1945 ft 166 kts 338°
2026-04-27 12:50 47.77639 13.01454 1630 ft 163 kts 340°
2026-04-27 12:50 47.78538 13.00889 1419 ft 124 kts 334°
2026-04-27 12:50 47.79249 13.00449 1418 ft 101 kts 337°
2026-04-27 12:50 47.79746 13.00140 1416 ft 39 kts 338°
2026-04-27 12:51 47.79836 13.00085 1417 ft 0 kts 336°
2026-04-27 12:51 47.79837 13.00084 1416 ft 0 kts 339°
2026-04-27 12:51 47.79845 13.00082 1416 ft 3 kts 351°